Location: Bellerive
(46.9237°N, 7.0223°E)
Time: 16:07:38
(UTC+00:00)

Cosmos 2082 Rocket - Pass Details

Date: 09 April 2020
Orbit: 831 x 855 km, 71.0° (Epoch: 03 June)

Event Time Altitude Azimuth Distance (km) Brightness Sun altitude
Exits shadow 20:33:31 16° 64° (ENE) 2,089 4.0 -22.2°
Drops below altitude 10° 20:34:58 10° 52° (NE) 2,464 4.5 -22.3°
Sets 20:37:55 0° 38° (NE) 3,409 5.4 -22.7°
